Hourly Weather Kozulishki

Today, 21 October, Wednesday

Time Temperature Precipitation Wind Pressure Humidity
00:00 +5°C° 0 mm 4 mps 750 mmHg 79%
01:00 +5°C° 0 mm 4 mps 750 mmHg 79%
02:00 +6°C° 0 mm 5 mps 749 mmHg 78%
03:00 +6°C° 0 mm 5 mps 749 mmHg 80%
04:00 +6°C° 0 mm 5 mps 748 mmHg 82%
05:00 +6°C° 0 mm 5 mps 747 mmHg 84%
06:00 +6°C° 0.2 mm 4 mps 747 mmHg 85%
07:00 +6°C° 0.2 mm 4 mps 747 mmHg 86%
08:00 +7°C° 0 mm 3 mps 746 mmHg 88%
09:00 +6°C° 0.1 mm 4 mps 747 mmHg 87%
10:00 +6°C° 0.1 mm 4 mps 747 mmHg 85%
11:00 +7°C° 0.1 mm 4 mps 747 mmHg 84%
12:00 +7°C° 0 mm 4 mps 747 mmHg 82%
13:00 +8°C° 0 mm 4 mps 747 mmHg 79%
14:00 +10°C° 0 mm 4 mps 747 mmHg 77%
15:00 +10°C° 0 mm 3 mps 746 mmHg 79%
16:00 +10°C° 0 mm 3 mps 746 mmHg 82%
17:00 +9°C° 0 mm 2 mps 746 mmHg 84%
18:00 +9°C° 0.3 mm 3 mps 746 mmHg 86%
19:00 +9°C° 0.3 mm 3 mps 746 mmHg 88%
20:00 +9°C° 0.3 mm 3 mps 747 mmHg 90%
21:00 +9°C° 0.3 mm 3 mps 746 mmHg 91%
22:00 +8°C° 0.3 mm 3 mps 746 mmHg 91%
23:00 +7°C° 0.3 mm 4 mps 746 mmHg 92%

Tomorrow, 22 October, Thursday

Time Temperature Precipitation Wind Pressure Humidity
00:00 +8°C° 0.1 mm 4 mps 746 mmHg 88%
01:00 +8°C° 0.1 mm 4 mps 746 mmHg 85%
02:00 +8°C° 0.1 mm 4 mps 746 mmHg 81%
03:00 +8°C° 0 mm 4 mps 745 mmHg 83%
04:00 +7°C° 0 mm 4 mps 745 mmHg 85%
05:00 +7°C° 0 mm 4 mps 745 mmHg 86%
06:00 +7°C° 0 mm 4 mps 744 mmHg 86%
07:00 +7°C° 0 mm 5 mps 744 mmHg 86%
08:00 +7°C° 0 mm 5 mps 744 mmHg 86%
09:00 +9°C° 0 mm 6 mps 744 mmHg 81%
10:00 +10°C° 0 mm 6 mps 744 mmHg 76%
11:00 +12°C° 0 mm 7 mps 745 mmHg 71%
12:00 +14°C° 0 mm 7 mps 744 mmHg 69%
13:00 +15°C° 0 mm 7 mps 744 mmHg 67%
14:00 +16°C° 0 mm 7 mps 744 mmHg 65%
15:00 +15°C° 0 mm 6 mps 744 mmHg 70%
16:00 +14°C° 0 mm 5 mps 744 mmHg 74%
17:00 +14°C° 0 mm 4 mps 744 mmHg 78%
18:00 +13°C° 0 mm 4 mps 745 mmHg 82%
19:00 +12°C° 0 mm 4 mps 745 mmHg 85%
20:00 +11°C° 0 mm 4 mps 745 mmHg 89%
21:00 +11°C° 0 mm 4 mps 745 mmHg 90%
22:00 +11°C° 0 mm 3 mps 745 mmHg 91%
23:00 +11°C° 0 mm 3 mps 746 mmHg 92%

Day after tomorrow, 23 October, Friday

Time Temperature Precipitation Wind Pressure Humidity
00:00 +11°C° 0 mm 3 mps 746 mmHg 93%
01:00 +10°C° 0 mm 3 mps 746 mmHg 93%
02:00 +10°C° 0 mm 3 mps 746 mmHg 94%
03:00 +10°C° 0 mm 3 mps 745 mmHg 94%
04:00 +10°C° 0 mm 3 mps 745 mmHg 94%
05:00 +10°C° 0 mm 4 mps 745 mmHg 94%
06:00 +11°C° 0 mm 4 mps 744 mmHg 92%
07:00 +10°C° 0 mm 5 mps 744 mmHg 90%
08:00 +12°C° 0 mm 5 mps 743 mmHg 87%
09:00 +12°C° 0.1 mm 5 mps 743 mmHg 84%
10:00 +13°C° 0.1 mm 6 mps 743 mmHg 81%
11:00 +14°C° 0.1 mm 6 mps 743 mmHg 78%
12:00 +13°C° 0.5 mm 6 mps 743 mmHg 82%
13:00 +13°C° 0.5 mm 5 mps 743 mmHg 85%
14:00 +12°C° 0.5 mm 5 mps 743 mmHg 89%
15:00 +12°C° 0 mm 5 mps 743 mmHg 89%
16:00 +12°C° 0 mm 5 mps 743 mmHg 89%
17:00 +12°C° 0 mm 4 mps 743 mmHg 90%
18:00 +12°C° 0 mm 4 mps 743 mmHg 90%
19:00 +12°C° 0 mm 4 mps 743 mmHg 91%
20:00 +12°C° 0 mm 3 mps 743 mmHg 92%
21:00 +11°C° 0 mm 3 mps 743 mmHg 93%
22:00 +11°C° 0 mm 3 mps 743 mmHg 94%
23:00 +10°C° 0 mm 3 mps 743 mmHg 95%

24 October, Saturday

Time Temperature Precipitation Wind Pressure Humidity
00:00 +10°C° 0 mm 2 mps 744 mmHg 96%
01:00 +9°C° 0 mm 2 mps 744 mmHg 96%
02:00 +9°C° 0 mm 2 mps 744 mmHg 96%
03:00 +9°C° 0 mm 2 mps 744 mmHg 96%
04:00 +9°C° 0 mm 1 mps 744 mmHg 95%
05:00 +9°C° 0 mm 1 mps 743 mmHg 95%
06:00 +9°C° 0 mm 1 mps 743 mmHg 96%
07:00 +9°C° 0 mm 1 mps 743 mmHg 96%
08:00 +9°C° 0 mm 1 mps 743 mmHg 96%
09:00 +11°C° 0 mm 1 mps 743 mmHg 92%
10:00 +12°C° 0 mm 1 mps 743 mmHg 87%
11:00 +13°C° 0 mm 2 mps 743 mmHg 83%
12:00 +14°C° 0 mm 2 mps 743 mmHg 81%
13:00 +14°C° 0 mm 2 mps 743 mmHg 80%
14:00 +14°C° 0 mm 2 mps 743 mmHg 79%
15:00 +14°C° 0.6 mm 2 mps 743 mmHg 82%
16:00 +13°C° 0.6 mm 2 mps 742 mmHg 85%
17:00 +13°C° 0.6 mm 2 mps 742 mmHg 89%
18:00 +11°C° 0.4 mm 3 mps 743 mmHg 87%
19:00 +10°C° 0.4 mm 4 mps 743 mmHg 86%
20:00 +9°C° 0.4 mm 5 mps 744 mmHg 85%
21:00 +8°C° 0 mm 4 mps 744 mmHg 86%
22:00 +8°C° 0 mm 4 mps 745 mmHg 87%
23:00 +7°C° 0 mm 4 mps 745 mmHg 87%

25 October, Sunday

Time Temperature Precipitation Wind Pressure Humidity
00:00 +7°C° 0 mm 4 mps 745 mmHg 89%
01:00 +6°C° 0 mm 4 mps 746 mmHg 90%
02:00 +6°C° 0 mm 4 mps 746 mmHg 91%
03:00 +5°C° 0 mm 3 mps 747 mmHg 92%
04:00 +5°C° 0 mm 3 mps 747 mmHg 93%
05:00 +5°C° 0 mm 3 mps 747 mmHg 94%
06:00 +5°C° 0 mm 3 mps 748 mmHg 95%
07:00 +5°C° 0 mm 2 mps 748 mmHg 95%
08:00 +5°C° 0 mm 2 mps 748 mmHg 96%
09:00 +7°C° 0 mm 2 mps 748 mmHg 89%
10:00 +8°C° 0 mm 2 mps 749 mmHg 83%
11:00 +10°C° 0 mm 2 mps 749 mmHg 77%
12:00 +10°C° 0 mm 2 mps 749 mmHg 73%
13:00 +11°C° 0 mm 3 mps 749 mmHg 69%
14:00 +12°C° 0 mm 3 mps 749 mmHg 65%
15:00 +11°C° 0 mm 3 mps 749 mmHg 69%
16:00 +10°C° 0 mm 2 mps 748 mmHg 73%
17:00 +9°C° 0 mm 2 mps 748 mmHg 78%
18:00 +8°C° 0 mm 2 mps 748 mmHg 80%
19:00 +8°C° 0 mm 3 mps 749 mmHg 82%
20:00 +7°C° 0 mm 3 mps 749 mmHg 85%
21:00 +7°C° 0 mm 3 mps 749 mmHg 85%
22:00 +7°C° 0 mm 3 mps 749 mmHg 86%
23:00 +7°C° 0 mm 3 mps 749 mmHg 86%

26 October, Monday

Time Temperature Precipitation Wind Pressure Humidity
00:00 +5°C° 0 mm 3 mps 749 mmHg 87%
01:00 +5°C° 0 mm 3 mps 749 mmHg 88%
02:00 +5°C° 0 mm 4 mps 749 mmHg 88%
03:00 +5°C° 0 mm 4 mps 749 mmHg 89%
04:00 +5°C° 0 mm 4 mps 749 mmHg 89%
05:00 +5°C° 0 mm 4 mps 749 mmHg 90%
06:00 +5°C° 0 mm 4 mps 749 mmHg 89%
07:00 +5°C° 0 mm 4 mps 748 mmHg 89%
08:00 +5°C° 0 mm 4 mps 748 mmHg 88%
09:00 +7°C° 0 mm 5 mps 748 mmHg 83%
10:00 +8°C° 0 mm 5 mps 748 mmHg 77%
11:00 +10°C° 0 mm 5 mps 748 mmHg 72%
12:00 +10°C° 0 mm 5 mps 748 mmHg 70%
13:00 +12°C° 0 mm 5 mps 748 mmHg 68%
14:00 +13°C° 0 mm 5 mps 748 mmHg 66%
15:00 +12°C° 0 mm 5 mps 747 mmHg 71%
16:00 +10°C° 0 mm 5 mps 747 mmHg 76%
17:00 +10°C° 0 mm 4 mps 747 mmHg 81%
18:00 +8°C° 0 mm 5 mps 747 mmHg 82%
19:00 +8°C° 0 mm 5 mps 747 mmHg 83%
20:00 +8°C° 0 mm 5 mps 747 mmHg 84%
21:00 +7°C° 0 mm 5 mps 747 mmHg 85%
22:00 +7°C° 0 mm 5 mps 747 mmHg 85%
23:00 +7°C° 0 mm 4 mps 747 mmHg 86%

27 October, Tuesday

Time Temperature Precipitation Wind Pressure Humidity
00:00 +6°C° 0 mm 4 mps 747 mmHg 87%
01:00 +6°C° 0 mm 4 mps 747 mmHg 88%
02:00 +6°C° 0 mm 4 mps 747 mmHg 89%
03:00 +6°C° 0 mm 4 mps 747 mmHg 88%
04:00 +6°C° 0 mm 5 mps 747 mmHg 88%
05:00 +6°C° 0 mm 5 mps 747 mmHg 87%
06:00 +7°C° 0 mm 5 mps 747 mmHg 86%
07:00 +7°C° 0 mm 5 mps 747 mmHg 85%
08:00 +7°C° 0 mm 5 mps 747 mmHg 84%
09:00 +8°C° 0 mm 5 mps 747 mmHg 81%
10:00 +9°C° 0 mm 5 mps 747 mmHg 77%
11:00 +10°C° 0 mm 6 mps 747 mmHg 73%
12:00 +10°C° 0 mm 5 mps 747 mmHg 71%
13:00 +12°C° 0 mm 5 mps 747 mmHg 70%
14:00 +13°C° 0 mm 5 mps 747 mmHg 68%
15:00 +12°C° 0 mm 4 mps 748 mmHg 72%
16:00 +11°C° 0 mm 4 mps 748 mmHg 75%
17:00 +10°C° 0 mm 3 mps 748 mmHg 78%
18:00 +10°C° 0 mm 3 mps 748 mmHg 80%
19:00 +9°C° 0 mm 3 mps 748 mmHg 82%
20:00 +9°C° 0 mm 3 mps 749 mmHg 84%
21:00 +9°C° 0 mm 3 mps 749 mmHg 85%
22:00 +8°C° 0 mm 3 mps 749 mmHg 86%
23:00 +8°C° 0 mm 3 mps 749 mmHg 87%
Show more